Regional Weather Roundup
Issued by NWS Newport/Morehead, NC

Current Version | Previous Version | Graphics & Text | Print | Product List | Glossary Off
Versions: 1 2 3 4 5 6 7 8 9 10 11 12 13 14 15 16 17 18 19 20 21 22 23 24 25 26 27 28 29 30 31 32 33 34 35 36 37 38 39 40 41 42 43 44 45 46 47 48 49 50

000
ASUS42 KMHX 251510
RWRMHX
WEATHER ROUNDUP FOR EASTERN NORTH CAROLINA
NATIONAL WEATHER SERVICE NEWPORT/MOREHEAD CITY NC
1100 AM EDT SAT OCT 25 2014

NOTE: "FAIR" INDICATES FEW OR NO CLOUDS BELOW 12,000 FEET
WITH NO SIGNIFICANT WEATHER AND/OR OBSTRUCTIONS TO VISIBILITY

NCZ015>017-031-032-045>047-102-103-251600-
NORTH COAST

CITY           SKY/WX    TMP DP  RH WIND       PRES   REMARKS
EDENTON        SUNNY     63  50  63 E3        29.99S
ELIZABETH CITY SUNNY     65  49  56 N6        29.98F
KITTY HAWK     SUNNY     65  51  60 NE3       29.96S
MANTEO         SUNNY     63  52  67 NW7       29.98S

$$

NCZ045>047-081-094-103-104-251600-
CENTRAL COAST

CITY           SKY/WX    TMP DP  RH WIND       PRES   REMARKS
FRISCO         SUNNY     64  56  75 VRB6      29.97F
SWANQUARTER      N/A     64 N/A N/A N2        29.94S

$$

NCZ095-097-098-100-101-251600-
SOUTHERN COAST

CITY           SKY/WX    TMP DP  RH WIND       PRES   REMARKS
BEAUFORT       SUNNY     66  51  58 N6        29.98F
CEDAR ISLAND     N/A     64 N/A N/A NW6       30.03S
JACKSONVILLE   SUNNY     63  48  58 E5        29.99F
PINEY ISLAND   SUNNY     69  48  47 N7        29.98F
WILMINGTON     SUNNY     67  51  56 N3        29.99F


$$

NCZ011>013-027>030-043-044-078>080-089-090>093-098-251600-
COASTAL PLAIN

CITY           SKY/WX    TMP DP  RH WIND       PRES   REMARKS
AHOSKIE        SUNNY     61  43  51 NE6       30.00S
CLINTON        SUNNY     62  49  63 CALM      30.00S
ELIZABETHTOWN  SUNNY     60  47  62 CALM      29.99F
GOLDSBORO      SUNNY     63  51  66 NE6       29.98F
GREENVILLE     SUNNY     63  45  51 CALM      30.01F
HAVELOCK       SUNNY     65  47  52 NE5       30.00F
KENANSVILLE    SUNNY     60  48  64 CALM      30.00F
KINSTON        SUNNY     64  46  52 E6        29.99F
NEW BERN       SUNNY     65  47  52 CALM      30.00F
RICHLANDS      SUNNY     63  46  55 CALM      30.00F
ROCKY MOUNT    SUNNY     63  43  48 E7        30.01R
WASHINGTON     SUNNY     62  48  60 CALM      29.99F
WHITEVILLE     SUNNY     62  50  63 CALM      29.99F

$$

AMZ130-135-150-152-154-156-158-170-250-252-270-ANZ085-086-088-633-658-670-251600-
MARINE OBSERVATIONS

STATION/POSITION TIME  TEMP    WIND        PRES    WAVE   SWELL
                       AIR SEA DIR/SP/G            HT/PER HT/PER
                 (UTC) (F)     (DEG/KT/KT) (MB)    (FT/S) (FT/S)
CHESAPEAKE LIGHT 1400   61     360/ 13/ 13 1015.5
64 E VA BEACH    1500   62 66  350/ 10/ 12 1013.8    3/ 5   3/ 5
DUCK             1500   61 66  340/  8/  9 1014.1
2 E DUCK         1500                        N/A     3/10   2/11
10 NE DUCK       1500      67                N/A     3/10   2/11
OREGON INLET     1500   63 64  300/  5/  7 1014.7
13E OREGON INLT  1500      69                N/A     4/ 9   2/11
HATTERAS CG      1500   62 64  350/  7/  9 1015.2
DIAMOND BUOY     1500   65     350/  8/ 10 1014.8    3/ 9   3/ 9
17 S OCRACOKE    1400          VRB  8/ 10  1015.1
CAPE LOOKOUT     1400   63      10/  4/  6 1015.4
BEAUFORT LAB     1500   63 67  350/  5/  7 1014.6
30 SE NEW RIVER  1500   65 74  340/  8/ 12 1015.0    3/10   3/10
5 SE WRIGHTSVLE  1500   60 71  340/  4/  6   N/A
225 S CAPE HAT   1420   72 77   20/ 12/ 14 1013.8    4/ 9   3/ 9
41 SE CHARLESTON 1500   68 78  360/ 10/ 12 1015.7    3/10   2/10

$$



USA.gov is the U.S. government's official web portal to all federal, state and local government web resources and services.